Location: Godiavel Galaoual
(15.2485°N, 12.6604°W)
Time: 00:50:50
(UTC+00:00)

Explorer 7 - Pass Details

Date: 18 June 2021
Orbit: 484 x 676 km, 50.3° (Epoch: 29 July)

Event Time Altitude Azimuth Distance (km) Brightness Sun altitude
Rises 06:30:54 0° 319° (NW) 2,740 10.2 1.4°
Reaches altitude 10° 06:33:13 10° 318° (NW) 1,810 9.3 1.9°
Maximum altitude 06:37:18 78° 233° (SW) 536 6.7 2.8°
Drops below altitude 10° 06:41:10 10° 146° (SE) 1,709 9.5 3.6°
Sets 06:43:18 0° 144° (SE) 2,571 10.4 4.1°
